Douglas Bisbee, AZ

7:44 PM MST on November 22, 2017 (GMT -0700)
Bisbee Douglas International

Weather History for KDUG - March, 2013

Change the Weather History Date:

Sunday, March 3, 2013

  Actual Average Record
Temperature  
Mean Temperature 56 °F 52 °F  
Max Temperature 82 °F 70 °F 86 °F (2009)
Min Temperature 30 °F 35 °F 14 °F (2002)
Degree Days  
Heating Degree Days 9 13  
Month to date heating degree days 41 39  
Since 1 July heating degree days 2245 2075  
Cooling Degree Days 0 0  
Month to date cooling degree days 0 0  
Year to date cooling degree days 0 0  
Growing Degree Days 6 (Base 50)    
Moisture  
Dew Point 8 °F    
Average Humidity 24    
Maximum Humidity 43    
Minimum Humidity 4    
Precipitation  
Precipitation 0.00 in 0.02 in 0.39 in (2015)
Month to date precipitation 0.00 0.06  
Year to date precipitation 0.84 1.45  
Snow  
Snow 0.00 in - - ()
Month to date snowfall 0.0  
Snow Depth 0.00 in    
Sea Level Pressure  
Sea Level Pressure 30.00 in    
Wind  
Wind Speed 7 mph (WNW)    
Max Wind Speed 28 mph    
Max Gust Speed 36 mph    
Visibility 10 miles    
Events      
T = Trace of Precipitation, MM = Missing Value Source: NWS Daily Summary

Daily Weather History Graph

Daily Weather History Graph

Search for Another Location

Airport or City:

Trip Planner

Search our weather history database for the weather conditions in past years. The results will help you decide how hot, cold, wet, or windy it might be!

Date:

Astronomy

Mar. 03, 2013 Rise Set
Actual Time 6:42 AM MST 6:18 PM MST
Civil Twilight 6:18 AM MST 6:42 PM MST
Nautical Twilight 5:50 AM MST 7:10 PM MST
Astronomical Twilight 5:22 AM MST 7:38 PM MST
Moon No Moon Rise 10:25 AM MST (3/3)
Length of Visible Light 12h 24m
Length of Day
11h 35m
Waning Gibbous, 63% of the Moon is Illuminated
Mar 3
Waning Gibbous
Mar 4
Last Quarter
Mar 11
New
Mar 19
First Quarter
Mar 27
Full

Hourly Weather History & Observations

Time (MST) Temp. Windchill Dew Point Humidity Pressure Visibility Wind Dir Wind Speed Gust Speed Precip Events Conditions
12:56 AM 37.0 °F 34.5 °F 10.0 °F 33% 30.11 in 10.0 mi SW 3.5 mph - N/A   Clear
1:56 AM 37.0 °F 32.4 °F 10.0 °F 33% 30.09 in 10.0 mi North 5.8 mph - N/A   Clear
2:56 AM 36.0 °F 32.1 °F 10.0 °F 34% 30.07 in 10.0 mi NE 4.6 mph - N/A   Clear
3:56 AM 34.0 °F - 10.0 °F 37% 30.05 in 10.0 mi Calm Calm - N/A   Clear
4:56 AM 33.8 °F - 10.4 °F 38% 30.15 in 10.0 mi Calm Calm - N/A   Clear
5:56 AM 30.9 °F - 10.9 °F 43% 30.06 in 10.0 mi Calm Calm - N/A   Clear
6:56 AM 36.0 °F - 10.0 °F 34% 30.09 in 10.0 mi Calm Calm - N/A   Clear
7:56 AM 41.0 °F - 15.1 °F 35% 30.11 in 10.0 mi Calm Calm - N/A   Clear
8:56 AM 50.0 °F - 17.1 °F 27% 30.10 in 10.0 mi SSW 3.5 mph - N/A   Clear
9:56 AM 59.0 °F - 12.9 °F 16% 30.07 in 10.0 mi South 3.5 mph - N/A   Clear
10:56 AM 68.0 °F - 10.0 °F 11% 30.02 in 10.0 mi SSE 8.1 mph - N/A   Clear
11:56 AM 73.0 °F - 9.0 °F 8% 29.99 in 10.0 mi Variable 5.8 mph - N/A   Clear
12:56 PM 78.1 °F - 1.0 °F 5% 29.94 in 10.0 mi SW 16.1 mph 23.0 mph N/A   Clear
1:03 PM 80.6 °F - 1.4 °F 5% 30.05 in 10.0 mi WSW 21.9 mph 25.3 mph N/A   Clear
1:56 PM 81.0 °F - -2.9 °F 4% 29.90 in 10.0 mi WSW 23.0 mph 33.4 mph N/A   Clear
2:56 PM 80.1 °F - -4.0 °F 4% 29.89 in 10.0 mi NW 8.1 mph 17.3 mph N/A   Clear
3:56 PM 79.0 °F - -2.0 °F 4% 29.90 in 10.0 mi WNW 21.9 mph 28.8 mph N/A   Clear
4:56 PM 77.0 °F - -0.9 °F 5% 29.91 in 10.0 mi NW 20.7 mph 28.8 mph N/A   Clear
5:56 PM 71.1 °F - 3.9 °F 7% 29.94 in 10.0 mi NW 12.7 mph - N/A   Clear
6:56 PM 64.9 °F - 9.0 °F 11% 29.95 in 10.0 mi NNW 8.1 mph - N/A   Clear
7:56 PM 60.1 °F - 7.0 °F 12% 29.97 in 10.0 mi NW 8.1 mph - N/A   Clear
8:56 PM 53.1 °F - 10.0 °F 18% 29.97 in 10.0 mi NNW 6.9 mph - N/A   Clear
9:56 PM 59.0 °F - 12.9 °F 16% 29.94 in 10.0 mi NNW 9.2 mph - N/A   Clear
10:56 PM 54.0 °F - 14.0 °F 21% 29.91 in 10.0 mi Calm Calm - N/A   Clear
11:56 PM 52.0 °F - 15.1 °F 23% 29.88 in 10.0 mi ESE 3.5 mph - N/A   Partly Cloudy